[[{"header":{"parameterUnit":"m.s-1","parameterCategory":1,"la1":30.2991,"la2":30.254,"lo1":-89.0895,"lo2":-89.0444,"dy":0.0017,"dx":0.0017,"nx":28,"ny":28,"refTime":"2026-02-07T03:00:00:Z","depth":0,"parameterNumber":2,"parameterNumberName":"U-component_of_WINDS"},"data":[0,0,0,0,0,0,0,0,0,0,0,0,0,0,0,0,0,0,0,0,0,0,0,0,0,0,0,0,0,0,0,0,0,0,0,0,0,0,0,0,0,0,0,0,0,0,0,0,0,0,0,0,0,0,0,0,0,0,-2.9851,-2.9851,0,-2.9881,-2.9881,-2.9882,-2.9803,-2.98,-2.9798,-2.9796,-2.9827,-2.983,-2.9833,0,0,0,0,0,0,0,0,0,0,0,0,0,-2.9726,-2.9729,-2.9851,-2.9851,-2.9852,-2.9881,-2.9881,-2.9882,-2.9803,-2.98,-2.9797,-2.9794,-2.9826,-2.9829,-2.9833,0,0,0,0,0,0,0,0,0,0,0,0,0,-2.9771,-2.9729,-2.9851,-2.9816,-2.9813,-2.9881,-2.9881,-2.9882,-2.9804,-2.98,-2.9797,-2.9793,-2.9824,-2.9829,-2.9834,-2.9936,0,0,-2.9848,-2.985,0,0,0,0,0,0,0,0,-2.9768,-2.9775,-2.9821,-2.9818,-2.9815,-2.9834,-2.9849,-2.99,-2.9805,-2.9807,-2.9796,-2.9791,-2.9832,-2.9836,-2.985,-2.9938,-2.9939,-2.9848,-2.9851,-2.9853,-2.9854,0,0,0,0,0,0,0,-2.9765,-2.9773,-2.9863,-2.9821,-2.9818,-2.9799,-2.9801,-2.9858,-2.984,-2.9807,-2.9801,-2.9806,-2.983,-2.9845,-2.985,-2.994,-2.9848,-2.9852,-2.9855,-2.9857,-3.0114,-3.0118,0,0,0,0,0,0,-2.9766,-2.9771,-2.9862,-2.9864,-2.9782,-2.9804,-2.9807,-2.9832,-2.9839,-2.9837,-2.9809,-2.9802,-2.9839,-2.9845,-2.9851,-2.9971,-2.9853,-2.9857,-2.986,-3.011,-3.0115,-3.0119,0,0,0,0,0,0,-2.9764,-2.9775,-2.986,-2.9816,-2.9825,-2.981,-2.9839,-2.9835,-2.985,-2.9841,-2.9837,-2.9828,-2.9837,-2.9844,-2.9916,-2.9971,-2.986,-2.9864,-3.0105,-3.0112,-3.0117,-3.0214,0,0,0,0,0,0,-2.9761,-2.9775,-2.9813,-2.9817,-2.9828,-2.9925,-2.9843,-2.9838,-2.9858,-2.9849,-2.9858,-2.9856,-2.9834,-2.9909,-2.992,-2.9976,-2.9868,-3.01,-3.0108,-3.0115,-3.0205,-3.0222,-3.0237,0,0,0,0,0,-2.9757,-2.9839,-2.9816,-2.9827,-2.9876,-2.9928,-2.9934,-2.9908,-2.9863,-2.9902,-2.9896,-2.9855,-2.9964,-2.9917,-2.9929,-2.9987,-3.0097,-3.0106,-3.0115,-3.0198,-3.0219,-3.0236,0,0,0,0,0,0,-2.9842,-2.9839,-2.9813,-2.9899,-2.9915,-2.9915,-2.9963,-2.9931,-2.9959,-2.9949,-2.9916,-2.9919,-2.9996,-2.9999,-2.9947,-3.0087,-3.0023,-3.0034,-3.0082,-3.0102,-3.0117,-3.0114,-2.9871,0,0,0,0,0,-2.9871,-2.9913,-2.9909,-2.9985,-2.9995,-2.9978,-3.0,-2.9978,-2.9993,-2.9999,-2.9998,-3.0014,-3.0052,-3.0077,-3.0111,-3.0206,-3.0207,-3.0252,-3.0267,-3.028,-3.029,-3.0341,-3.0361,-3.0149,-3.0149,-3.0149,0,0,-2.993,-2.9934,-2.9963,-3.0003,-3.0012,-3.0057,-2.9984,-3.0034,-3.0067,-3.0006,-3.0073,-3.0075,-3.009,-3.0174,-3.0211,-3.0178,-3.0349,-3.0292,-3.0302,-3.0305,-3.0352,-3.0372,-3.039,-3.0155,-3.0154,-3.0153,0,0,-3.0062,-3.007,-3.0134,-3.0146,-3.0161,-3.015,-3.0165,-3.0171,-3.0169,-3.0236,-3.0192,-3.0231,-3.0297,-3.0309,-3.0325,-3.0464,-3.0427,-3.0476,-3.0557,-3.0606,-3.0623,-3.0638,-3.0687,-3.0705,-3.0486,-3.0487,-3.0487,0,-3.0134,-3.02,-3.0172,-3.0226,-3.0244,-3.0192,-3.0258,-3.027,-3.0296,-3.031,-3.0274,-3.0355,-3.0362,-3.0448,-3.0482,-3.0497,-3.0513,-3.0474,-3.0623,-3.0637,-3.0651,-3.0697,-3.0716,-3.0492,-3.0492,-3.0491,-3.0491,0,-3.0288,-3.0335,-3.0385,-3.0412,-3.0436,-3.0496,-3.0477,-3.0506,-3.0483,-3.0476,-3.0545,-3.0552,-3.0587,-3.0606,-3.0584,-3.069,-3.0669,-3.0629,-3.0563,-3.0677,-3.072,-3.0738,-3.0501,-3.0499,-3.0497,-3.0495,0,0,-3.0472,-3.0483,-3.0502,-3.0514,-3.0528,-3.0563,-3.0621,-3.0655,-3.068,-3.0701,-3.0748,-3.0806,-3.0769,-3.0786,-3.0766,-3.081,-3.0919,-3.0764,-3.0764,-3.0792,-3.1035,-3.1064,-3.1085,-3.0896,-3.0899,-3.0902,-3.1034,0,-3.0601,-3.0699,-3.0676,-3.0774,-3.0817,-3.0769,-3.0819,-3.0834,-3.0829,-3.0865,-3.086,-3.0901,-3.0849,-3.086,-3.0901,-3.0897,-3.0967,-3.0887,-3.0939,-3.0941,-3.0935,-3.1108,-3.1139,-3.1263,-3.105,-3.1053,-3.1055,0,-3.0764,-3.0791,-3.0893,-3.0901,-3.0918,-3.0963,-3.0993,-3.1029,-3.1044,-3.1038,-3.1059,-3.103,-3.1087,-3.1023,-3.1102,-3.1048,-3.1068,-3.107,-3.1074,-3.1076,-3.1004,-3.1114,-3.1302,-3.132,-3.1082,-3.108,-3.1078,0,-3.0887,-3.0949,-3.1018,-3.1029,-3.1041,-3.1074,-3.108,-3.1092,-3.1115,-3.1141,-3.1155,-3.1189,-3.1207,-3.1233,-3.1215,-3.117,-3.1297,-3.1231,-3.1293,-3.1293,-3.132,-3.1318,-3.1512,-3.1336,-3.1336,-3.1335,-3.1335,0,-3.1032,-3.1096,-3.1073,-3.1115,-3.1186,-3.1159,-3.123,-3.1231,-3.1243,-3.1284,-3.1246,-3.1286,-3.126,-3.1298,-3.1284,-3.1351,-3.136,-3.1356,-3.1352,-3.1359,-3.1359,-3.137,-3.136,-3.134,-3.1339,-3.1338,-3.1337,0,-3.118,-3.1167,-3.1239,-3.1244,-3.1247,-3.1299,-3.1304,-3.1343,-3.1337,-3.139,-3.1401,-3.1391,-3.1434,-3.1419,-3.1465,-3.1456,-3.1541,-3.1526,-3.1536,-3.1531,-3.1594,-3.1587,-3.18,-3.1826,-3.1635,-3.1637,-3.1638,0,-3.1273,-3.1321,-3.1332,-3.1357,-3.1366,-3.1408,-3.1431,-3.1408,-3.1433,-3.1456,-3.1493,-3.1533,-3.1563,-3.1635,-3.1631,-3.1667,-3.1651,-3.1723,-3.1656,-3.1662,-3.1651,-3.1647,-3.1652,-3.1736,-3.1738,-3.174,-3.1742,0,-3.1438,-3.143,-3.1464,-3.1497,-3.1526,-3.1551,-3.1572,-3.1595,-3.1574,-3.1604,-3.1648,-3.1672,-3.172,-3.176,-3.1792,-3.1798,-3.1767,-3.1763,-3.1779,-3.1786,-3.1789,-3.1787,-3.1571,-3.1758,-3.1756,-3.1755,-3.1754,-3.1753,-3.156,-3.1601,-3.1615,-3.1655,-3.1669,-3.1691,-3.1728,-3.1727,-3.1763,-3.18,-3.1785,-3.1835,-3.1851,-3.1891,-3.1903,-3.1942,-3.1914,-3.1937,-3.1943,-3.1949,-3.1956,-3.1785,-3.1948,-3.1947,-3.1947,-3.1947,-3.1946,0,-3.1723,-3.173,-3.1767,-3.1799,-3.1831,-3.1799,-3.1822,-3.185,-3.1895,-3.1913,-3.1944,-3.1995,-3.2034,-3.2035,-3.2072,-3.2103,-3.209,-3.2114,-3.211,-3.2112,-3.198,-3.1961,-3.2124,-3.2124,-3.2124,-3.2124,-3.2124,-3.2124,-3.1811,-3.1878,-3.1872,-3.1946,-3.1953,-3.2002,-3.2017,-3.2037,-3.2051,-3.211,-3.2142,-3.2143,-3.2154,-3.2191,-3.2226,-3.2225,-3.224,-3.2269,-3.2263,-3.2139,-3.2121,-3.2104,-3.2087,-3.2273,-3.2273,-3.2392,-3.2393,-3.2394]},{"header":{"parameterUnit":"m.s-1","parameterCategory":1,"la1":30.2991,"la2":30.254,"lo1":-89.0895,"lo2":-89.0444,"dy":0.0017,"dx":0.0017,"nx":28,"ny":28,"refTime":"2026-02-07T03:00:00:Z","depth":0,"parameterNumber":3,"parameterNumberName":"V-component_of_WINDS"},"data":[0,0,0,0,0,0,0,0,0,0,0,0,0,0,0,0,0,0,0,0,0,0,0,0,0,0,0,0,0,0,0,0,0,0,0,0,0,0,0,0,0,0,0,0,0,0,0,0,0,0,0,0,0,0,0,0,0,0,0.918,0.918,0,0.9195,0.9195,0.9195,0.9182,0.9182,0.9181,0.9181,0.9194,0.9194,0.9195,0,0,0,0,0,0,0,0,0,0,0,0,0,0.9142,0.9143,0.918,0.918,0.9181,0.9195,0.9195,0.9195,0.9182,0.9182,0.9181,0.918,0.9193,0.9194,0.9195,0,0,0,0,0,0,0,0,0,0,0,0,0,0.9158,0.9143,0.918,0.9176,0.9176,0.9195,0.9195,0.9195,0.9182,0.9182,0.9181,0.918,0.9193,0.9194,0.9196,0.9219,0,0,0.9199,0.92,0,0,0,0,0,0,0,0,0.9157,0.9159,0.9176,0.9176,0.9176,0.9186,0.9186,0.9203,0.9183,0.918,0.9181,0.918,0.9192,0.9193,0.9197,0.9219,0.922,0.9199,0.92,0.9201,0.9201,0,0,0,0,0,0,0,0.9156,0.9158,0.9186,0.9177,0.9177,0.9173,0.9175,0.9189,0.919,0.918,0.9179,0.9181,0.9191,0.9196,0.9197,0.922,0.9199,0.92,0.9201,0.9202,0.9265,0.9266,0,0,0,0,0,0,0.9155,0.9157,0.9185,0.9186,0.9164,0.9175,0.9176,0.9184,0.919,0.919,0.9182,0.9181,0.9194,0.9196,0.9198,0.9227,0.9201,0.9202,0.9203,0.9264,0.9265,0.9266,0,0,0,0,0,0,0.9154,0.9158,0.9185,0.9172,0.9175,0.9176,0.9184,0.9184,0.9189,0.9191,0.9191,0.9187,0.9194,0.9196,0.9214,0.9228,0.9202,0.9204,0.9263,0.9264,0.9265,0.9286,0,0,0,0,0,0,0.9153,0.9157,0.9166,0.9172,0.9176,0.9201,0.9185,0.9185,0.9191,0.919,0.9195,0.9196,0.9193,0.9213,0.9216,0.9229,0.9205,0.9262,0.9263,0.9265,0.9284,0.9287,0.9291,0,0,0,0,0,0.9152,0.917,0.9167,0.917,0.9187,0.9202,0.9204,0.9202,0.9192,0.9202,0.9203,0.9195,0.9226,0.9215,0.9218,0.9232,0.9261,0.9263,0.9265,0.9282,0.9287,0.9291,0,0,0,0,0,0,0.9164,0.9171,0.9167,0.9188,0.9195,0.92,0.9211,0.9206,0.9215,0.9213,0.9209,0.9211,0.923,0.9233,0.922,0.9256,0.9242,0.9245,0.9254,0.9258,0.9261,0.9261,0.9206,0,0,0,0,0,0.917,0.9182,0.9187,0.9205,0.9208,0.9209,0.9216,0.9214,0.922,0.9223,0.9226,0.9232,0.9243,0.9251,0.9261,0.9284,0.9286,0.9295,0.9299,0.9301,0.9304,0.9319,0.9324,0.9273,0.9273,0.9273,0,0,0.9181,0.9186,0.9193,0.9207,0.9212,0.9226,0.9212,0.9225,0.9235,0.9225,0.9243,0.9245,0.9252,0.9274,0.9283,0.9276,0.9319,0.9304,0.9306,0.9308,0.9322,0.9326,0.9331,0.9274,0.9274,0.9274,0,0,0.9208,0.9212,0.9229,0.9235,0.9243,0.9244,0.9248,0.9255,0.9256,0.9275,0.9268,0.9279,0.9298,0.9304,0.931,0.9342,0.9336,0.9345,0.9363,0.9378,0.9382,0.9385,0.9399,0.9403,0.9348,0.9348,0.9348,0,0.922,0.924,0.9238,0.9253,0.926,0.9252,0.927,0.9275,0.9286,0.9292,0.9284,0.9309,0.9313,0.9337,0.9345,0.9349,0.9355,0.9345,0.9381,0.9385,0.9388,0.9401,0.9406,0.9349,0.9349,0.9349,0.9349,0,0.9255,0.9269,0.9282,0.9295,0.9303,0.9319,0.932,0.9329,0.9326,0.9328,0.9348,0.9353,0.9365,0.9371,0.9367,0.9395,0.9391,0.9382,0.9368,0.9395,0.9406,0.9411,0.9351,0.935,0.935,0.935,0,0,0.929,0.9303,0.9308,0.9314,0.9324,0.9335,0.9351,0.9365,0.9373,0.9381,0.9396,0.9413,0.9406,0.9413,0.941,0.9423,0.9451,0.9413,0.9413,0.9421,0.9483,0.9491,0.9496,0.9447,0.9447,0.9448,0.9483,0,0.9318,0.9348,0.9348,0.9375,0.9389,0.9383,0.9398,0.9406,0.9408,0.9421,0.9423,0.9436,0.9425,0.943,0.9442,0.9445,0.9463,0.9442,0.9461,0.9462,0.9461,0.9502,0.9509,0.9542,0.9488,0.9489,0.9489,0,0.9355,0.9367,0.9397,0.9407,0.9413,0.9426,0.9439,0.9451,0.946,0.9461,0.947,0.9466,0.9484,0.9469,0.9494,0.948,0.9488,0.949,0.9492,0.9494,0.9478,0.9507,0.9552,0.9558,0.9496,0.9496,0.9495,0,0.938,0.9403,0.9424,0.9429,0.9441,0.9451,0.9457,0.9465,0.9474,0.9486,0.9492,0.9504,0.9512,0.9522,0.9523,0.9511,0.9548,0.9533,0.9551,0.9551,0.9559,0.9559,0.9608,0.9562,0.9562,0.9562,0.9562,0,0.9413,0.9431,0.9435,0.9448,0.947,0.9469,0.949,0.9495,0.9503,0.9518,0.9512,0.9526,0.9525,0.9539,0.9539,0.9561,0.9564,0.9566,0.9566,0.9567,0.9567,0.9573,0.9571,0.9563,0.9563,0.9563,0.9563,0,0.9444,0.9447,0.947,0.948,0.9483,0.9499,0.9508,0.9521,0.9523,0.9542,0.9546,0.955,0.9567,0.9568,0.9587,0.9587,0.9614,0.9611,0.9611,0.9611,0.963,0.9629,0.9685,0.9693,0.9641,0.9641,0.9642,0,0.9465,0.9479,0.9492,0.9502,0.9508,0.9524,0.9533,0.9534,0.9544,0.9558,0.9569,0.9586,0.9599,0.9625,0.963,0.9645,0.9643,0.9662,0.9645,0.9646,0.9645,0.9645,0.9647,0.9665,0.9666,0.9666,0.9666,0,0.9503,0.9505,0.9519,0.9535,0.9547,0.9559,0.957,0.9578,0.958,0.9592,0.961,0.962,0.964,0.9657,0.9672,0.9677,0.9673,0.9672,0.9677,0.9679,0.9679,0.9681,0.9622,0.9671,0.967,0.967,0.967,0.9669,0.9531,0.9544,0.9556,0.9573,0.9582,0.9593,0.9607,0.9613,0.9627,0.9645,0.9644,0.9664,0.9675,0.9695,0.9702,0.9717,0.9711,0.9718,0.972,0.9722,0.9725,0.9676,0.972,0.972,0.9719,0.9719,0.9719,0,0.957,0.9578,0.9594,0.9611,0.9624,0.962,0.9633,0.9645,0.9662,0.9673,0.9687,0.9708,0.9725,0.9732,0.9749,0.976,0.9759,0.9764,0.9764,0.9766,0.9729,0.9723,0.9766,0.9766,0.9766,0.9766,0.9766,0.9766,0.9592,0.9616,0.962,0.9648,0.9656,0.9676,0.9684,0.9695,0.9704,0.9729,0.9743,0.9748,0.9758,0.9775,0.9791,0.9793,0.98,0.9807,0.9808,0.9773,0.9768,0.9764,0.9759,0.9808,0.9808,0.9844,0.9844,0.9845]}]]